C6518 KCHS-KECG

Flight info

Callsign C6518
Flight time N/A
Altitude 3000
Route VFR DCT
Aircraft AS65/L-V/N

Departure

Time N/A
Airport Charleston International Airport (KCHS)

Arrival

Time 2026-05-03 21:21
Airport Elizabeth City Regional Airport & Coast Guard Air Station (KECG)
Time Latitude Longitude Altitude Speed Heading
2026-05-03 20:15 34.30537 -78.47587 3003 ft 155 kts 40°
2026-05-03 20:15 34.31318 -78.46696 3004 ft 154 kts 40°
2026-05-03 20:15 34.32086 -78.45823 3005 ft 154 kts 40°
2026-05-03 20:15 34.32866 -78.44936 3001 ft 155 kts 40°
2026-05-03 20:16 34.33643 -78.44048 3010 ft 153 kts 41°
2026-05-03 20:16 34.34410 -78.43169 3005 ft 151 kts 41°
2026-05-03 20:16 34.35186 -78.42295 3014 ft 151 kts 41°
2026-05-03 20:16 34.35951 -78.41419 2999 ft 153 kts 41°
2026-05-03 20:17 34.36724 -78.40537 3003 ft 152 kts 41°
2026-05-03 20:17 34.37501 -78.39656 2987 ft 152 kts 41°
2026-05-03 20:17 34.38274 -78.38774 2993 ft 153 kts 41°
2026-05-03 20:17 34.39052 -78.37887 2991 ft 154 kts 40°
2026-05-03 20:18 34.39814 -78.37015 2991 ft 153 kts 40°
2026-05-03 20:18 34.40583 -78.36133 3005 ft 151 kts 41°
2026-05-03 20:18 34.41360 -78.35256 2989 ft 153 kts 41°
2026-05-03 20:18 34.42137 -78.34371 2991 ft 153 kts 40°
2026-05-03 20:19 34.42901 -78.33488 2991 ft 153 kts 40°
2026-05-03 20:19 34.43670 -78.32610 2995 ft 151 kts 40°
2026-05-03 20:19 34.44445 -78.31730 2991 ft 153 kts 40°
2026-05-03 20:19 34.45212 -78.30841 2998 ft 152 kts 41°
2026-05-03 20:20 34.45985 -78.29967 2994 ft 153 kts 40°
2026-05-03 20:20 34.46744 -78.29095 2996 ft 152 kts 41°
2026-05-03 20:20 34.47515 -78.28211 2991 ft 152 kts 40°
2026-05-03 20:20 34.48287 -78.27331 2985 ft 153 kts 40°
2026-05-03 20:21 34.49053 -78.26452 2991 ft 152 kts 40°
2026-05-03 20:21 34.49827 -78.25567 3007 ft 152 kts 42°
2026-05-03 20:21 34.50588 -78.24690 2977 ft 152 kts 40°
2026-05-03 20:21 34.51355 -78.23821 2980 ft 151 kts 41°
2026-05-03 20:22 34.52126 -78.22942 2980 ft 153 kts 41°
2026-05-03 20:22 34.52891 -78.22070 2991 ft 152 kts 40°
2026-05-03 20:22 34.53662 -78.21187 2978 ft 152 kts 40°
2026-05-03 20:22 34.54428 -78.20300 2979 ft 153 kts 41°
2026-05-03 20:23 34.55194 -78.19408 2985 ft 152 kts 41°
2026-05-03 20:23 34.55949 -78.18535 2969 ft 151 kts 41°
2026-05-03 20:23 34.56724 -78.17669 2971 ft 152 kts 39°
2026-05-03 20:23 34.57501 -78.16792 2978 ft 152 kts 40°
2026-05-03 20:24 34.58256 -78.15927 2978 ft 151 kts 40°
2026-05-03 20:24 34.59033 -78.15037 3001 ft 151 kts 41°
2026-05-03 20:24 34.59774 -78.14162 2972 ft 152 kts 40°
2026-05-03 20:24 34.60541 -78.13276 2976 ft 153 kts 40°
2026-05-03 20:25 34.61295 -78.12395 2989 ft 151 kts 41°
2026-05-03 20:25 34.62071 -78.11514 2974 ft 153 kts 42°
2026-05-03 20:25 34.62835 -78.10634 2966 ft 153 kts 39°
2026-05-03 20:25 34.63600 -78.09756 2997 ft 148 kts 40°
2026-05-03 20:26 34.64353 -78.08884 2982 ft 152 kts 40°
2026-05-03 20:26 34.65121 -78.08010 2966 ft 152 kts 40°
2026-05-03 20:26 34.65885 -78.07133 2981 ft 150 kts 41°
2026-05-03 20:26 34.66636 -78.06252 2991 ft 149 kts 41°
2026-05-03 20:27 34.67391 -78.05380 2968 ft 151 kts 40°
2026-05-03 20:27 34.68154 -78.04516 2962 ft 152 kts 39°
2026-05-03 20:27 34.68918 -78.03636 2971 ft 151 kts 41°
2026-05-03 20:27 34.69690 -78.02751 2971 ft 152 kts 40°
2026-05-03 20:28 34.70460 -78.01869 2979 ft 153 kts 40°
2026-05-03 20:28 34.71227 -78.00985 2967 ft 153 kts 39°
2026-05-03 20:28 34.72000 -78.00095 2995 ft 151 kts 41°
2026-05-03 20:28 34.72758 -77.99214 2969 ft 152 kts 39°
2026-05-03 20:29 34.73512 -77.98343 2978 ft 150 kts 41°
2026-05-03 20:29 34.74283 -77.97451 2986 ft 151 kts 40°
2026-05-03 20:29 34.75023 -77.96580 2973 ft 151 kts 39°
2026-05-03 20:29 34.75793 -77.95700 2992 ft 151 kts 41°
2026-05-03 20:30 34.76555 -77.94819 2974 ft 153 kts 39°
2026-05-03 20:30 34.77320 -77.93942 2977 ft 151 kts 40°
2026-05-03 20:30 34.78082 -77.93063 2972 ft 151 kts 39°
2026-05-03 20:30 34.78839 -77.92185 2977 ft 150 kts 41°
2026-05-03 20:31 34.79602 -77.91304 2985 ft 149 kts 41°
2026-05-03 20:31 34.80356 -77.90435 2975 ft 151 kts 41°
2026-05-03 20:31 34.81109 -77.89557 2969 ft 150 kts 40°
2026-05-03 20:31 34.81873 -77.88685 2978 ft 150 kts 40°
2026-05-03 20:32 34.82635 -77.87808 2996 ft 150 kts 40°
2026-05-03 20:32 34.83379 -77.86926 2972 ft 152 kts 40°
2026-05-03 20:32 34.84147 -77.86045 2977 ft 151 kts 39°
2026-05-03 20:32 34.84910 -77.85171 2978 ft 151 kts 39°
2026-05-03 20:33 34.85680 -77.84294 2987 ft 150 kts 40°
2026-05-03 20:33 34.86447 -77.83420 2984 ft 151 kts 39°
2026-05-03 20:33 34.87200 -77.82558 2984 ft 151 kts 38°
2026-05-03 20:33 34.87970 -77.81684 2994 ft 151 kts 39°
2026-05-03 20:34 34.88718 -77.80802 2983 ft 150 kts 39°
2026-05-03 20:34 34.89478 -77.79924 2986 ft 152 kts 40°
2026-05-03 20:34 34.90238 -77.79052 2981 ft 151 kts 41°
2026-05-03 20:34 34.90989 -77.78163 2990 ft 149 kts 42°
2026-05-03 20:35 34.91746 -77.77281 2994 ft 152 kts 40°
2026-05-03 20:35 34.92509 -77.76397 2988 ft 151 kts 41°
2026-05-03 20:35 34.93274 -77.75516 2986 ft 152 kts 41°
2026-05-03 20:35 34.94028 -77.74644 2996 ft 151 kts 42°
2026-05-03 20:36 34.94783 -77.73757 3005 ft 149 kts 41°
2026-05-03 20:36 34.95542 -77.72877 3000 ft 151 kts 43°
2026-05-03 20:36 34.96299 -77.71998 2979 ft 151 kts 40°
2026-05-03 20:36 34.97056 -77.71115 2992 ft 149 kts 41°
2026-05-03 20:37 34.97815 -77.70235 2986 ft 150 kts 39°
2026-05-03 20:37 34.98577 -77.69349 2990 ft 150 kts 40°
2026-05-03 20:37 34.99332 -77.68471 2986 ft 151 kts 40°
2026-05-03 20:37 35.00083 -77.67589 2986 ft 150 kts 40°
2026-05-03 20:38 35.00840 -77.66707 2993 ft 149 kts 43°
2026-05-03 20:38 35.01585 -77.65846 2983 ft 152 kts 39°
2026-05-03 20:38 35.02336 -77.64966 2997 ft 149 kts 41°
2026-05-03 20:38 35.03093 -77.64084 3000 ft 150 kts 40°
2026-05-03 20:39 35.03847 -77.63204 2986 ft 152 kts 39°
2026-05-03 20:39 35.04602 -77.62313 2992 ft 148 kts 41°
2026-05-03 20:39 35.05362 -77.61432 3005 ft 151 kts 41°
2026-05-03 20:39 35.06110 -77.60551 2981 ft 151 kts 39°
2026-05-03 20:40 35.06872 -77.59672 3001 ft 151 kts 42°
2026-05-03 20:40 35.07616 -77.58788 2997 ft 148 kts 40°
2026-05-03 20:40 35.08371 -77.57915 2998 ft 150 kts 40°
2026-05-03 20:40 35.09115 -77.57039 2976 ft 150 kts 39°
2026-05-03 20:41 35.09868 -77.56161 2979 ft 150 kts 40°
2026-05-03 20:41 35.10625 -77.55275 3007 ft 148 kts 41°
2026-05-03 20:41 35.11372 -77.54394 2970 ft 152 kts 39°
2026-05-03 20:41 35.12141 -77.53511 2980 ft 151 kts 41°
2026-05-03 20:42 35.12899 -77.52626 2982 ft 151 kts 41°
2026-05-03 20:42 35.13649 -77.51744 2986 ft 149 kts 41°
2026-05-03 20:42 35.14411 -77.50852 2984 ft 152 kts 41°
2026-05-03 20:42 35.15157 -77.49976 2996 ft 152 kts 43°
2026-05-03 20:43 35.15910 -77.49092 2992 ft 150 kts 41°
2026-05-03 20:43 35.16660 -77.48207 2995 ft 147 kts 41°
2026-05-03 20:43 35.17410 -77.47334 2988 ft 150 kts 41°
2026-05-03 20:43 35.18168 -77.46446 2977 ft 151 kts 40°
2026-05-03 20:44 35.18923 -77.45561 2982 ft 151 kts 41°
2026-05-03 20:44 35.19673 -77.44681 2982 ft 150 kts 41°
2026-05-03 20:44 35.20417 -77.43809 2981 ft 151 kts 41°
2026-05-03 20:44 35.21175 -77.42920 2981 ft 151 kts 41°
2026-05-03 20:45 35.21925 -77.42034 2985 ft 150 kts 42°
2026-05-03 20:45 35.22682 -77.41146 2978 ft 151 kts 40°
2026-05-03 20:45 35.23447 -77.40256 2988 ft 151 kts 40°
2026-05-03 20:45 35.24192 -77.39362 2992 ft 150 kts 42°
2026-05-03 20:46 35.24942 -77.38484 2975 ft 151 kts 39°
2026-05-03 20:46 35.25693 -77.37606 2974 ft 150 kts 41°
2026-05-03 20:46 35.26444 -77.36720 2976 ft 151 kts 40°
2026-05-03 20:46 35.27192 -77.35844 2981 ft 151 kts 40°
2026-05-03 20:47 35.27945 -77.34947 2985 ft 149 kts 40°
2026-05-03 20:47 35.28686 -77.34082 2978 ft 150 kts 41°
2026-05-03 20:47 35.29447 -77.33190 2982 ft 151 kts 41°
2026-05-03 20:47 35.30204 -77.32298 2987 ft 150 kts 41°
2026-05-03 20:48 35.30949 -77.31413 2999 ft 148 kts 40°
2026-05-03 20:48 35.31695 -77.30534 2974 ft 151 kts 40°
2026-05-03 20:48 35.32457 -77.29649 2992 ft 150 kts 40°
2026-05-03 20:48 35.33207 -77.28765 2996 ft 149 kts 42°
2026-05-03 20:49 35.33951 -77.27880 2975 ft 150 kts 41°
2026-05-03 20:49 35.34695 -77.27011 2994 ft 151 kts 42°
2026-05-03 20:49 35.35450 -77.26120 2981 ft 152 kts 41°
2026-05-03 20:49 35.36199 -77.25235 2993 ft 149 kts 42°
2026-05-03 20:50 35.36946 -77.24349 2998 ft 149 kts 41°
2026-05-03 20:50 35.37692 -77.23462 2986 ft 152 kts 42°
2026-05-03 20:50 35.38435 -77.22570 2984 ft 149 kts 41°
2026-05-03 20:50 35.39188 -77.21693 2972 ft 151 kts 40°
2026-05-03 20:51 35.39934 -77.20823 2976 ft 150 kts 40°
2026-05-03 20:51 35.40690 -77.19934 2985 ft 150 kts 40°
2026-05-03 20:51 35.41446 -77.19045 2977 ft 151 kts 40°
2026-05-03 20:51 35.42204 -77.18159 2978 ft 150 kts 41°
2026-05-03 20:52 35.42950 -77.17279 2984 ft 149 kts 41°
2026-05-03 20:52 35.43708 -77.16390 2977 ft 151 kts 40°
2026-05-03 20:52 35.44456 -77.15506 2974 ft 151 kts 41°
2026-05-03 20:52 35.45216 -77.14619 2979 ft 150 kts 40°
2026-05-03 20:53 35.45964 -77.13729 2977 ft 151 kts 41°
2026-05-03 20:53 35.46722 -77.12833 2994 ft 150 kts 42°
2026-05-03 20:53 35.47460 -77.11951 2969 ft 152 kts 40°
2026-05-03 20:53 35.48203 -77.11062 2986 ft 150 kts 43°
2026-05-03 20:54 35.48946 -77.10163 2985 ft 149 kts 43°
2026-05-03 20:54 35.50444 -77.08380 2974 ft 150 kts 42°
2026-05-03 20:54 35.51201 -77.07496 2969 ft 152 kts 40°
2026-05-03 20:55 35.51962 -77.06609 2970 ft 152 kts 40°
2026-05-03 20:55 35.52716 -77.05717 2979 ft 150 kts 41°
2026-05-03 20:55 35.53472 -77.04826 2972 ft 151 kts 41°
2026-05-03 20:55 35.54219 -77.03945 2986 ft 150 kts 41°
2026-05-03 20:56 35.54966 -77.03047 2977 ft 150 kts 41°
2026-05-03 20:56 35.55720 -77.02157 2980 ft 149 kts 41°
2026-05-03 20:56 35.56473 -77.01270 2978 ft 149 kts 41°
2026-05-03 20:56 35.57232 -77.00385 2992 ft 150 kts 42°
2026-05-03 20:57 35.57979 -76.99488 2981 ft 151 kts 42°
2026-05-03 20:57 35.58733 -76.98597 2969 ft 151 kts 41°
2026-05-03 20:57 35.59488 -76.97698 2978 ft 151 kts 41°
2026-05-03 20:57 35.60245 -76.96796 2976 ft 152 kts 41°
2026-05-03 20:58 35.60983 -76.95908 2996 ft 150 kts 43°
2026-05-03 20:58 35.61717 -76.95016 2989 ft 149 kts 44°
2026-05-03 20:58 35.62465 -76.94124 2973 ft 150 kts 40°
2026-05-03 20:58 35.63229 -76.93232 2975 ft 151 kts 40°
2026-05-03 20:59 35.63983 -76.92340 2977 ft 151 kts 41°
2026-05-03 20:59 35.64737 -76.91438 2979 ft 150 kts 41°
2026-05-03 20:59 35.65488 -76.90540 3000 ft 150 kts 44°
2026-05-03 20:59 35.66242 -76.89641 2973 ft 152 kts 41°
2026-05-03 21:00 35.66985 -76.88747 2970 ft 151 kts 41°
2026-05-03 21:00 35.67489 -76.88155 2973 ft 151 kts 42°
2026-05-03 21:00 35.68082 -76.87449 2972 ft 152 kts 41°
2026-05-03 21:00 35.68847 -76.86529 2977 ft 151 kts 41°
2026-05-03 21:01 35.69603 -76.85627 2978 ft 151 kts 42°
2026-05-03 21:01 35.70350 -76.84727 2973 ft 151 kts 41°
2026-05-03 21:01 35.71100 -76.83837 2970 ft 150 kts 40°
2026-05-03 21:01 35.71852 -76.82940 2973 ft 151 kts 42°
2026-05-03 21:02 35.72601 -76.82041 2973 ft 150 kts 41°
2026-05-03 21:02 35.73345 -76.81154 2976 ft 150 kts 42°
2026-05-03 21:02 35.74092 -76.80258 2967 ft 151 kts 41°
2026-05-03 21:02 35.74843 -76.79359 2974 ft 151 kts 41°
2026-05-03 21:03 35.75595 -76.78455 2989 ft 150 kts 42°
2026-05-03 21:03 35.76346 -76.77553 2968 ft 152 kts 41°
2026-05-03 21:03 35.77110 -76.76651 3018 ft 151 kts 41°
2026-05-03 21:03 35.77862 -76.75749 3033 ft 151 kts 41°
2026-05-03 21:04 35.78615 -76.74844 3044 ft 151 kts 41°
2026-05-03 21:04 35.79363 -76.73943 3043 ft 151 kts 42°
2026-05-03 21:04 35.80106 -76.73051 3048 ft 151 kts 43°
2026-05-03 21:04 35.80853 -76.72150 3045 ft 151 kts 43°
2026-05-03 21:05 35.81610 -76.71246 3061 ft 151 kts 43°
2026-05-03 21:05 35.82359 -76.70344 3044 ft 152 kts 42°
2026-05-03 21:05 35.83115 -76.69439 3055 ft 151 kts 43°
2026-05-03 21:05 35.83866 -76.68532 3043 ft 152 kts 40°
2026-05-03 21:06 35.84622 -76.67627 3047 ft 150 kts 40°
2026-05-03 21:06 35.85368 -76.66727 3043 ft 151 kts 41°
2026-05-03 21:06 35.86114 -76.65826 3056 ft 150 kts 43°
2026-05-03 21:06 35.86821 -76.64978 3052 ft 150 kts 41°
2026-05-03 21:07 35.87572 -76.64074 3047 ft 151 kts 42°
2026-05-03 21:07 35.88334 -76.63164 3038 ft 152 kts 41°
2026-05-03 21:07 35.89086 -76.62260 3047 ft 152 kts 42°
2026-05-03 21:07 35.89838 -76.61347 3044 ft 152 kts 41°
2026-05-03 21:08 35.90591 -76.60438 3044 ft 151 kts 42°
2026-05-03 21:08 35.91344 -76.59531 3055 ft 151 kts 44°
2026-05-03 21:08 35.92092 -76.58625 3041 ft 151 kts 41°
2026-05-03 21:08 35.92839 -76.57739 3041 ft 152 kts 41°
2026-05-03 21:09 35.93591 -76.56826 3036 ft 152 kts 42°
2026-05-03 21:09 35.94344 -76.55916 3021 ft 150 kts 43°
2026-05-03 21:09 35.95093 -76.55013 2882 ft 151 kts 43°
2026-05-03 21:09 35.95839 -76.54110 2756 ft 150 kts 42°
2026-05-03 21:10 35.96586 -76.53208 2627 ft 150 kts 43°
2026-05-03 21:10 35.97334 -76.52305 2503 ft 150 kts 43°
2026-05-03 21:10 35.98080 -76.51405 2363 ft 149 kts 43°
2026-05-03 21:10 35.98812 -76.50522 2200 ft 150 kts 43°
2026-05-03 21:11 35.99565 -76.49613 2139 ft 151 kts 42°
2026-05-03 21:11 36.00313 -76.48713 2118 ft 149 kts 42°
2026-05-03 21:11 36.01057 -76.47820 2077 ft 155 kts 41°
2026-05-03 21:11 36.01873 -76.46862 1947 ft 166 kts 41°
2026-05-03 21:12 36.02723 -76.45858 1807 ft 172 kts 42°
2026-05-03 21:12 36.03590 -76.44826 1606 ft 174 kts 43°
2026-05-03 21:12 36.04458 -76.43789 1468 ft 173 kts 44°
2026-05-03 21:12 36.05248 -76.42799 1358 ft 147 kts 45°
2026-05-03 21:13 36.05916 -76.41945 1240 ft 138 kts 43°
2026-05-03 21:13 36.06618 -76.41093 1220 ft 143 kts 43°
2026-05-03 21:13 36.07326 -76.40232 1208 ft 143 kts 42°
2026-05-03 21:13 36.08031 -76.39376 1201 ft 143 kts 43°
2026-05-03 21:14 36.08740 -76.38518 1199 ft 141 kts 41°
2026-05-03 21:14 36.09449 -76.37663 1196 ft 143 kts 41°
2026-05-03 21:14 36.10159 -76.36807 1191 ft 143 kts 43°
2026-05-03 21:14 36.10862 -76.35960 1201 ft 142 kts 44°
2026-05-03 21:15 36.11571 -76.35093 1208 ft 141 kts 44°
2026-05-03 21:15 36.12268 -76.34244 1180 ft 143 kts 42°
2026-05-03 21:15 36.12979 -76.33385 1181 ft 143 kts 42°
2026-05-03 21:15 36.13690 -76.32523 1177 ft 143 kts 42°
2026-05-03 21:16 36.14391 -76.31669 1179 ft 141 kts 42°
2026-05-03 21:16 36.15095 -76.30817 1179 ft 143 kts 41°
2026-05-03 21:16 36.15797 -76.29959 1179 ft 142 kts 44°
2026-05-03 21:16 36.16500 -76.29100 1180 ft 141 kts 43°
2026-05-03 21:17 36.17200 -76.28247 1177 ft 142 kts 42°
2026-05-03 21:17 36.17665 -76.27684 1187 ft 137 kts 42°
2026-05-03 21:17 36.18455 -76.26691 1174 ft 115 kts 40°
2026-05-03 21:17 36.19055 -76.25971 1178 ft 122 kts 41°
2026-05-03 21:18 36.19644 -76.25246 1174 ft 117 kts 42°
2026-05-03 21:18 36.20230 -76.24532 1187 ft 118 kts 43°
2026-05-03 21:18 36.20818 -76.23818 1173 ft 120 kts 42°
2026-05-03 21:18 36.21412 -76.23092 1177 ft 120 kts 41°
2026-05-03 21:19 36.21976 -76.22362 946 ft 118 kts 54°
2026-05-03 21:19 36.22287 -76.21428 872 ft 117 kts 74°
2026-05-03 21:19 36.22545 -76.20497 825 ft 113 kts 59°
2026-05-03 21:19 36.22902 -76.19659 808 ft 109 kts 69°
2026-05-03 21:20 36.23039 -76.18770 776 ft 103 kts 74°
2026-05-03 21:20 36.23337 -76.18000 741 ft 96 kts 47°
2026-05-03 21:20 36.23754 -76.17382 783 ft 91 kts 44°
2026-05-03 21:20 36.24234 -76.16947 694 ft 82 kts 17°
2026-05-03 21:21 36.24759 -76.16851 594 ft 70 kts 359°
2026-05-03 21:21 36.25176 -76.16876 536 ft 50 kts 349°
2026-05-03 21:21 36.25473 -76.16902 450 ft 36 kts 350°
2026-05-03 21:21 36.25695 -76.16934 312 ft 30 kts 342°
2026-05-03 21:22 36.25885 -76.17022 232 ft 27 kts 332°
2026-05-03 21:22 36.26028 -76.17131 163 ft 21 kts 325°
2026-05-03 21:22 36.26122 -76.17234 111 ft 15 kts 324°
2026-05-03 21:22 36.26181 -76.17311 55 ft 9 kts 324°
2026-05-03 21:23 36.26205 -76.17341 21 ft 1 kts 324°
2026-05-03 21:23 36.26205 -76.17342 18 ft 0 kts 329°